�������l�o���
Date,Time,MP-1(��Sv/h),MP-2(��Sv/h),MP-3(��Sv/h),MP-4(��Sv/h),MP-5(��Sv/h),MP-6(��Sv/h),MP-7(��Sv/h),MP-8(��Sv/h),����,����(m/s),���J
2017/04/19,00:00,1.007,1.611,1.097,1.933,1.311,0.544,0.991,0.918,�k��,3.1,��
2017/04/19,00:10,1.005,1.610,1.098,1.933,1.311,0.542,0.992,0.919,��,3.2,��
2017/04/19,00:20,1.008,1.609,1.097,1.934,1.311,0.542,0.994,0.918,��,3.6,��
2017/04/19,00:30,1.005,1.610,1.097,1.929,1.312,0.542,0.991,0.915,��,3.4,��
2017/04/19,00:40,1.006,1.610,1.098,1.936,1.310,0.543,0.991,0.919,���k��,3.7,��
2017/04/19,00:50,1.007,1.609,1.099,1.934,1.311,0.542,0.991,0.916,���k��,3.2,��
2017/04/19,01:00,1.005,1.609,1.099,1.936,1.313,0.543,0.992,0.917,���쐼,3.1,��
2017/04/19,01:10,1.004,1.609,1.097,1.934,1.311,0.542,0.991,0.918,�쐼,2.3,��
2017/04/19,01:20,1.005,1.608,1.100,1.932,1.310,0.543,0.990,0.917,��쐼,1.5,��
2017/04/19,01:30,1.005,1.608,1.095,1.932,1.308,0.542,0.990,0.918,��,2.0,��
2017/04/19,01:40,1.004,1.608,1.099,1.935,1.311,0.543,0.988,0.917,�쐼,1.7,��
2017/04/19,01:50,1.007,1.609,1.096,1.931,1.310,0.543,0.990,0.918,�쐼,2.6,��
2017/04/19,02:00,1.004,1.605,1.099,1.932,1.311,0.541,0.991,0.917,�쐼,2.3,��
2017/04/19,02:10,1.007,1.610,1.094,1.935,1.309,0.542,0.988,0.917,��,2.0,��
2017/04/19,02:20,1.005,1.607,1.094,1.933,1.311,0.542,0.991,0.917,��,2.0,��
2017/04/19,02:30,1.003,1.609,1.096,1.932,1.312,0.542,0.990,0.918,��쓌,1.9,��
2017/04/19,02:40,1.004,1.608,1.096,1.930,1.310,0.541,0.988,0.919,��쓌,2.6,��
2017/04/19,02:50,1.003,1.609,1.097,1.935,1.310,0.542,0.990,0.917,��쓌,3.8,��
2017/04/19,03:00,1.004,1.607,1.097,1.933,1.310,0.541,0.992,0.918,��쓌,3.0,��
2017/04/19,03:10,1.004,1.609,1.097,1.932,1.312,0.543,0.990,0.918,�쐼,3.2,��
2017/04/19,03:20,1.004,1.607,1.096,1.933,1.310,0.543,0.989,0.918,��,6.7,��
2017/04/19,03:30,1.006,1.608,1.098,1.932,1.308,0.543,0.991,0.918,���쐼,3.5,��
2017/04/19,03:40,1.005,1.606,1.096,1.936,1.312,0.543,0.991,0.919,�쐼,3.2,��
2017/04/19,03:50,1.008,1.609,1.095,1.937,1.313,0.542,0.991,0.919,���쐼,3.3,��
2017/04/19,04:00,1.007,1.607,1.097,1.932,1.310,0.544,0.992,0.918,���쐼,4.6,��
2017/04/19,04:10,1.005,1.610,1.098,1.936,1.310,0.544,0.991,0.919,��,4.5,��
2017/04/19,04:20,1.006,1.608,1.097,1.937,1.312,0.543,0.991,0.916,���쐼,4.2,��
2017/04/19,04:30,1.004,1.608,1.097,1.934,1.312,0.543,0.991,0.917,�쐼,4.0,��
2017/04/19,04:40,1.005,1.608,1.095,1.935,1.311,0.543,0.991,0.918,�쐼,3.9,��
2017/04/19,04:50,1.005,1.608,1.095,1.932,1.312,0.542,0.989,0.918,��,4.1,��
2017/04/19,05:00,1.005,1.606,1.097,1.935,1.310,0.542,0.990,0.918,��,3.2,��
2017/04/19,05:10,1.005,1.608,1.096,1.931,1.312,0.543,0.988,0.919,��쐼,4.4,��
2017/04/19,05:20,1.004,1.608,1.097,1.933,1.311,0.541,0.991,0.917,��쐼,5.8,��
2017/04/19,05:30,1.005,1.608,1.099,1.933,1.312,0.545,0.989,0.918,��쐼,6.2,��
2017/04/19,05:40,1.004,1.607,1.097,1.934,1.311,0.542,0.991,0.917,��쐼,5.5,��
2017/04/19,05:50,1.006,1.609,1.096,1.936,1.314,0.543,0.993,0.920,�쐼,3.7,��
2017/04/19,06:00,1.004,1.608,1.098,1.932,1.315,0.543,0.990,0.918,��쐼,4.1,��
2017/04/19,06:10,1.005,1.610,1.095,1.934,1.313,0.544,0.990,0.917,��쐼,4.0,��
2017/04/19,06:20,1.007,1.610,1.096,1.932,1.310,0.543,0.991,0.919,��쐼,2.3,��
2017/04/19,06:30,1.005,1.609,1.100,1.934,1.314,0.544,0.992,0.918,��,3.3,��
2017/04/19,06:40,1.006,1.610,1.099,1.933,1.311,0.544,0.992,0.917,��,2.6,��
2017/04/19,06:50,1.005,1.613,1.100,1.936,1.314,0.543,0.991,0.918,��쓌,3.4,��
2017/04/19,07:00,1.008,1.612,1.100,1.936,1.314,0.545,0.992,0.919,��쓌,3.7,��
2017/04/19,07:10,1.005,1.613,1.098,1.937,1.315,0.544,0.992,0.919,��,3.0,��
2017/04/19,07:20,1.007,1.613,1.101,1.935,1.313,0.544,0.994,0.919,��,4.3,��
2017/04/19,07:30,1.005,1.613,1.101,1.937,1.315,0.542,0.993,0.920,��쐼,4.0,��
2017/04/19,07:40,1.008,1.612,1.102,1.937,1.317,0.540,0.993,0.920,�쐼,3.8,��
2017/04/19,07:50,1.009,1.611,1.102,1.939,1.317,0.543,0.992,0.920,���쐼,4.6,��
2017/04/19,08:00,1.009,1.614,1.103,1.936,1.319,0.543,0.993,0.920,��쐼,5.8,��
2017/04/19,08:10,1.011,1.610,1.101,1.939,1.318,0.542,0.992,0.921,��쐼,6.7,��
2017/04/19,08:20,1.010,1.610,1.102,1.938,1.316,0.541,0.993,0.920,�쐼,4.7,��
2017/04/19,08:30,1.008,1.612,1.103,1.938,1.319,0.542,0.991,0.918,�쐼,6.2,��
2017/04/19,08:40,1.010,1.613,1.103,1.940,1.317,0.541,0.991,0.919,�쐼,5.8,��
2017/04/19,08:50,1.012,1.613,1.105,1.940,1.317,0.542,0.991,0.919,��,6.8,��
2017/04/19,09:00,1.014,1.613,1.104,1.942,1.317,0.543,0.990,0.919,��,7.1,��
2017/04/19,09:10,1.011,1.611,1.107,1.940,1.317,0.543,0.992,0.918,��,7.4,��
2017/04/19,09:20,1.013,1.612,1.102,1.942,1.318,0.543,0.992,0.918,��,6.7,��
2017/04/19,09:30,1.009,1.613,1.104,1.944,1.318,0.544,0.992,0.919,���쐼,7.5,��
2017/04/19,09:40,1.009,1.614,1.102,1.943,1.319,0.543,0.993,0.917,��,7.0,��
2017/04/19,09:50,1.009,1.615,1.105,1.944,1.317,0.543,0.992,0.919,��,6.3,��
2017/04/19,10:00,1.012,1.613,1.101,1.940,1.315,0.542,0.991,0.918,��,6.7,��
2017/04/19,10:10,1.010,1.614,1.101,1.943,1.318,0.544,0.991,0.919,��,7.1,�L
2017/04/19,10:20,1.010,1.613,1.102,1.944,1.313,0.542,0.992,0.919,��,8.4,�L
2017/04/19,10:30,1.008,1.610,1.103,1.947,1.315,0.545,0.992,0.919,��,5.6,�L
2017/04/19,10:40,1.010,1.614,1.104,1.945,1.317,0.546,0.990,0.918,��,4.1,�L
2017/04/19,10:50,1.009,1.614,1.105,1.945,1.318,0.545,0.992,0.918,���k��,4.6,��
2017/04/19,11:00,1.013,1.615,1.105,1.946,1.320,0.548,0.991,0.919,�k��,5.4,��
2017/04/19,11:10,1.014,1.617,1.087,1.945,1.321,0.547,0.992,0.920,�k��,8.2,��
2017/04/19,11:20,1.014,1.620,1.088,1.945,1.323,0.550,0.992,0.921,���k��,7.0,��
2017/04/19,11:30,1.014,1.622,1.074,1.948,1.321,0.548,0.994,0.922,���k��,8.7,��
2017/04/19,11:40,1.016,1.623,1.092,1.947,1.325,0.550,0.992,0.923,�k��,9.2,��
2017/04/19,11:50,1.015,1.625,1.107,1.947,1.324,0.546,0.994,0.926,��,12.1,��
2017/04/19,12:00,1.016,1.624,1.108,1.931,1.324,0.546,0.992,0.923,��,13.5,��
2017/04/19,12:10,1.016,1.622,1.108,1.942,1.325,0.546,0.996,0.922,���k��,10.8,��
2017/04/19,12:20,1.017,1.621,1.107,1.916,1.322,0.547,0.996,0.922,��,12.2,��
2017/04/19,12:30,1.015,1.617,1.109,1.947,1.323,0.547,0.996,0.921,��,10.7,��
2017/04/19,12:40,1.015,1.623,1.109,1.948,1.325,0.546,0.996,0.919,��,13.0,��
2017/04/19,12:50,1.016,1.623,1.106,1.949,1.326,0.548,0.997,0.920,���k��,13.0,��
2017/04/19,13:00,1.018,1.621,1.108,1.951,1.324,0.548,0.996,0.921,��,9.9,��
2017/04/19,13:10,1.017,1.626,1.107,1.949,1.325,0.546,0.995,0.919,��,8.3,��
2017/04/19,13:20,1.020,1.623,1.109,1.949,1.328,0.547,0.998,0.921,��,8.9,��
2017/04/19,13:30,1.018,1.626,1.111,1.956,1.327,0.547,0.996,0.920,���k��,14.6,��
2017/04/19,13:40,1.018,1.626,1.110,1.952,1.324,0.546,0.996,0.922,���k��,14.9,��
2017/04/19,13:50,1.020,1.627,1.109,1.957,1.329,0.547,0.998,0.921,���k��,15.0,��
2017/04/19,14:00,1.019,1.628,1.110,1.956,1.321,0.547,0.997,0.921,��,13.9,��
2017/04/19,14:10,1.018,1.630,1.111,1.955,1.323,0.547,0.998,0.922,��,12.1,��
2017/04/19,14:20,1.021,1.629,1.112,1.956,1.312,0.548,0.998,0.921,��,14.9,��
2017/04/19,14:30,1.020,1.625,1.110,1.955,1.314,0.548,0.997,0.924,��,13.2,��
2017/04/19,14:40,1.021,1.626,1.113,1.955,1.335,0.548,0.998,0.921,��,12.4,��
2017/04/19,14:50,1.016,1.629,1.110,1.956,1.334,0.547,0.997,0.921,���k��,11.4,��
2017/04/19,15:00,1.018,1.634,1.110,1.957,1.333,0.546,0.998,0.922,��,11.6,��
2017/04/19,15:10,1.019,1.634,1.111,1.956,1.333,0.547,0.997,0.921,��,11.9,��
2017/04/19,15:20,1.014,1.633,1.110,1.959,1.330,0.547,0.998,0.921,��,17.1,��
2017/04/19,15:30,1.019,1.634,1.109,1.956,1.333,0.546,0.997,0.922,���k��,14.4,��
2017/04/19,15:40,1.017,1.630,1.108,1.959,1.335,0.546,0.997,0.921,��,13.9,�L
2017/04/19,15:50,1.016,1.632,1.109,1.958,1.331,0.545,0.995,0.921,��,14.1,��
2017/04/19,16:00,1.017,1.631,1.108,1.955,1.333,0.546,0.995,0.921,��,12.7,��
2017/04/19,16:10,1.019,1.632,1.108,1.958,1.332,0.545,0.997,0.921,��,14.7,��
2017/04/19,16:20,1.021,1.635,1.108,1.957,1.335,0.546,0.997,0.919,��,15.7,��
2017/04/19,16:30,1.019,1.633,1.109,1.954,1.333,0.549,0.995,0.922,-,CALM,��
2017/04/19,16:40,1.019,1.631,1.108,1.958,1.333,0.548,0.995,0.919,��,16.4,��
2017/04/19,16:50,1.018,1.634,1.107,1.958,1.332,0.548,0.996,0.923,��,18.2,��
2017/04/19,17:00,1.020,1.638,1.103,1.959,1.331,0.549,0.996,0.921,��,14.1,��
2017/04/19,17:10,1.019,1.635,1.105,1.955,1.332,0.549,0.998,0.921,-,CALM,��
2017/04/19,17:20,1.020,1.637,1.101,1.957,1.334,0.548,0.996,0.922,��,13.0,��
2017/04/19,17:30,1.019,1.640,1.099,1.957,1.331,0.548,0.995,0.922,���k��,16.6,��
2017/04/19,17:40,1.021,1.638,1.099,1.959,1.332,0.548,0.996,0.921,���k��,9.9,��
2017/04/19,17:50,1.019,1.638,1.101,1.959,1.332,0.546,0.995,0.921,���k��,11.8,��
2017/04/19,18:00,1.021,1.633,1.103,1.958,1.332,0.547,0.996,0.921,��,9.5,��
2017/04/19,18:10,1.021,1.636,1.101,1.958,1.335,0.545,0.992,0.920,�k��,9.1,��
2017/04/19,18:20,1.020,1.637,1.101,1.962,1.333,0.546,0.994,0.921,��,6.9,��
2017/04/19,18:30,1.021,1.635,1.101,1.961,1.334,0.545,0.994,0.921,���k��,8.4,��
2017/04/19,18:40,1.019,1.636,1.102,1.959,1.335,0.545,0.992,0.922,���k��,2.6,��
2017/04/19,18:50,1.018,1.636,1.099,1.960,1.337,0.546,0.992,0.921,���k��,5.3,��
2017/04/19,19:00,1.019,1.634,1.102,1.958,1.338,0.546,0.994,0.922,�k��,1.4,��
2017/04/19,19:10,1.019,1.637,1.102,1.959,1.334,0.545,0.995,0.923,���k��,8.9,��
2017/04/19,19:20,1.020,1.637,1.102,1.962,1.334,0.546,0.993,0.925,�k��,7.9,��
2017/04/19,19:30,1.021,1.637,1.099,1.962,1.336,0.545,0.994,0.923,���k��,7.2,��
2017/04/19,19:40,1.020,1.638,1.101,1.961,1.336,0.544,0.996,0.923,��,7.4,��
2017/04/19,19:50,1.020,1.635,1.099,1.961,1.337,0.545,0.994,0.923,���k��,7.8,��
2017/04/19,20:00,1.019,1.635,1.101,1.961,1.336,0.546,0.993,0.922,�k��,9.6,��
2017/04/19,20:10,1.018,1.634,1.099,1.963,1.333,0.544,0.994,0.924,���k��,12.2,��
2017/04/19,20:20,1.018,1.636,1.100,1.961,1.336,0.543,0.993,0.924,�k��,8.6,��
2017/04/19,20:30,1.018,1.635,1.098,1.961,1.336,0.543,0.992,0.924,�k��,8.2,��
2017/04/19,20:40,1.018,1.637,1.099,1.962,1.336,0.543,0.992,0.923,�k��,8.0,��
2017/04/19,20:50,1.019,1.635,1.100,1.962,1.333,0.544,0.993,0.923,�k��,11.0,��
2017/04/19,21:00,1.020,1.636,1.098,1.962,1.334,0.543,0.992,0.922,�k��,11.0,��
2017/04/19,21:10,1.019,1.638,1.098,1.964,1.335,0.542,0.994,0.922,�k��,7.7,��
2017/04/19,21:20,1.015,1.634,1.098,1.963,1.334,0.544,0.992,0.922,�k��,6.1,��
2017/04/19,21:30,1.018,1.634,1.100,1.963,1.335,0.543,0.992,0.920,�k��,6.7,��
2017/04/19,21:40,1.016,1.637,1.098,1.962,1.336,0.545,0.992,0.920,�k�k��,4.2,��
2017/04/19,21:50,1.016,1.637,1.098,1.963,1.336,0.544,0.991,0.922,�k�k��,6.5,��
2017/04/19,22:00,1.018,1.635,1.100,1.962,1.337,0.543,0.994,0.922,�k�k��,9.3,��
2017/04/19,22:10,1.017,1.636,1.097,1.962,1.336,0.543,0.994,0.923,�k�k��,7.9,��
2017/04/19,22:20,1.018,1.635,1.099,1.962,1.336,0.544,0.992,0.921,�k�k��,9.5,��
2017/04/19,22:30,1.017,1.637,1.100,1.964,1.334,0.543,0.993,0.923,�k��,12.7,��
2017/04/19,22:40,1.017,1.633,1.101,1.962,1.335,0.543,0.994,0.922,�k��,15.0,��
2017/04/19,22:50,1.019,1.638,1.098,1.961,1.338,0.544,0.994,0.923,�k�k��,13.9,��
2017/04/19,23:00,1.018,1.633,1.099,1.962,1.334,0.545,0.994,0.921,�k��,10.6,��
2017/04/19,23:10,1.018,1.636,1.100,1.963,1.336,0.544,0.994,0.922,�k�k��,9.8,��
2017/04/19,23:20,1.017,1.635,1.100,1.965,1.336,0.542,0.993,0.921,�k�k��,4.5,��
2017/04/19,23:30,1.019,1.633,1.100,1.962,1.336,0.543,0.993,0.922,�k�k��,4.6,��
2017/04/19,23:40,1.020,1.634,1.100,1.961,1.337,0.543,0.994,0.921,�k�k��,3.7,��
2017/04/19,23:50,1.018,1.636,1.097,1.961,1.337,0.545,0.997,0.919,�k,6.2,��
